Time,TemperatureF,DewpointF,PressureIn,WindDirection,WindDirectionDegrees,WindSpeedMPH,WindSpeedGustMPH,Humidity,HourlyPrecipIn,Conditions,Clouds,dailyrainin,SoftwareType,DateUTC
2013-07-29 00:02:00,55.0,55.0,30.05,NW,311,5.0,9.0,100,0.00,,,0.00,,2013-07-29 07:02:00,
2013-07-29 00:12:00,56.0,56.0,30.05,WNW,298,4.0,6.0,100,0.00,,,0.00,,2013-07-29 07:12:00,
2013-07-29 00:22:00,56.0,56.0,30.06,WNW,301,2.0,5.0,100,0.00,,,0.00,,2013-07-29 07:22:00,
2013-07-29 00:33:00,56.0,56.0,30.06,WNW,301,2.0,5.0,100,0.00,,,0.00,,2013-07-29 07:33:00,
2013-07-29 00:43:00,54.0,54.0,30.06,West,264,1.0,3.0,100,0.00,,,0.00,,2013-07-29 07:43:00,
2013-07-29 00:53:00,54.0,54.0,30.06,West,264,1.0,3.0,100,0.00,,,0.00,,2013-07-29 07:53:00,
2013-07-29 01:02:00,53.0,53.0,30.06,West,271,1.0,4.0,100,0.00,,,0.00,,2013-07-29 08:02:00,
2013-07-29 01:12:00,53.0,53.0,30.06,West,271,0.0,2.0,100,0.00,,,0.00,,2013-07-29 08:12:00,
2013-07-29 01:22:00,53.0,53.0,30.06,West,271,0.0,2.0,100,0.00,,,0.00,,2013-07-29 08:22:00,
2013-07-29 01:33:00,54.0,54.0,30.05,WNW,302,0.0,2.0,100,0.00,,,0.00,,2013-07-29 08:33:00,
2013-07-29 01:42:00,53.0,53.0,30.05,NW,304,1.0,1.0,100,0.00,,,0.00,,2013-07-29 08:42:00,
2013-07-29 01:52:00,53.0,53.0,30.05,NW,304,1.0,1.0,100,0.00,,,0.00,,2013-07-29 08:52:00,
2013-07-29 02:02:00,52.0,52.0,30.06,SSE,147,2.0,3.0,100,0.00,,,0.00,,2013-07-29 09:02:00,
2013-07-29 02:12:00,52.0,52.0,30.05,SE,132,0.0,3.0,100,0.00,,,0.00,,2013-07-29 09:12:00,
2013-07-29 02:22:00,52.0,52.0,30.05,SE,132,0.0,3.0,100,0.00,,,0.00,,2013-07-29 09:22:00,
2013-07-29 02:33:00,53.0,53.0,30.05,SE,132,2.0,2.0,100,0.00,,,0.00,,2013-07-29 09:33:00,
2013-07-29 02:43:00,52.0,52.0,30.05,South,171,1.0,5.0,100,0.00,,,0.00,,2013-07-29 09:43:00,
2013-07-29 02:53:00,51.0,51.0,30.06,South,171,1.0,3.0,100,0.00,,,0.00,,2013-07-29 09:53:00,
2013-07-29 03:02:00,51.0,51.0,30.06,South,171,1.0,3.0,100,0.00,,,0.00,,2013-07-29 10:02:00,
2013-07-29 03:13:00,51.0,51.0,30.05,WSW,239,0.0,2.0,100,0.00,,,0.00,,2013-07-29 10:13:00,
2013-07-29 03:22:00,51.0,51.0,30.05,WSW,239,0.0,2.0,100,0.00,,,0.00,,2013-07-29 10:22:00,
2013-07-29 03:32:00,51.0,51.0,30.05,NNE,26,0.0,3.0,100,0.00,,,0.00,,2013-07-29 10:32:00,
2013-07-29 03:44:00,51.0,51.0,30.05,NNE,26,1.0,2.0,100,0.00,,,0.00,,2013-07-29 10:44:00,
2013-07-29 03:52:00,52.0,52.0,30.05,SE,134,2.0,4.0,100,0.00,,,0.00,,2013-07-29 10:52:00,
2013-07-29 04:33:00,52.0,52.0,30.05,SE,132,4.0,5.0,100,0.00,,,0.00,,2013-07-29 11:33:00,
2013-07-29 04:44:00,52.0,52.0,30.05,SSW,211,1.0,8.0,100,0.00,,,0.00,,2013-07-29 11:44:00,
2013-07-29 05:33:00,51.0,51.0,30.06,SE,128,1.0,2.0,100,0.00,,,0.00,,2013-07-29 12:33:00,
2013-07-29 05:44:00,52.0,52.0,30.05,SE,128,0.0,2.0,100,0.00,,,0.00,,2013-07-29 12:44:00,
2013-07-29 06:12:00,52.0,52.0,30.05,SE,137,2.0,4.0,100,0.00,,,0.00,,2013-07-29 13:12:00,
2013-07-29 06:53:00,52.0,52.0,30.05,SSE,155,2.0,2.0,100,0.00,,,0.00,,2013-07-29 13:53:00,
2013-07-29 07:02:00,52.0,52.0,30.06,SSE,148,3.0,4.0,100,0.00,,,0.00,,2013-07-29 14:02:00,
2013-07-29 07:12:00,52.0,52.0,30.06,East,101,3.0,6.0,100,0.00,,,0.00,,2013-07-29 14:12:00,
2013-07-29 07:33:00,53.0,53.0,30.06,SSE,148,4.0,5.0,100,0.00,,,0.00,,2013-07-29 14:33:00,
2013-07-29 07:42:00,53.0,53.0,30.06,SE,146,3.0,5.0,100,0.00,,,0.00,,2013-07-29 14:42:00,
2013-07-29 07:53:00,53.0,53.0,30.06,SE,146,3.0,5.0,100,0.00,,,0.00,,2013-07-29 14:53:00,
2013-07-29 08:02:00,53.0,53.0,30.06,SE,146,3.0,5.0,100,0.00,,,0.00,,2013-07-29 15:02:00,
2013-07-29 08:12:00,53.0,53.0,30.06,SE,132,3.0,6.0,100,0.00,,,0.00,,2013-07-29 15:12:00,
2013-07-29 08:34:00,53.0,53.0,30.06,SE,144,3.0,5.0,100,0.00,,,0.00,,2013-07-29 15:34:00,
2013-07-29 08:44:00,54.0,54.0,30.07,SSE,165,3.0,5.0,100,0.00,,,0.00,,2013-07-29 15:44:00,
2013-07-29 08:52:00,54.0,54.0,30.07,SSE,165,3.0,5.0,100,0.00,,,0.00,,2013-07-29 15:52:00,
2013-07-29 09:02:00,55.0,55.0,30.06,SE,141,1.0,3.0,100,0.00,,,0.00,,2013-07-29 16:02:00,
2013-07-29 09:12:00,55.0,55.0,30.06,SE,142,1.0,3.0,100,0.00,,,0.00,,2013-07-29 16:12:00,
2013-07-29 09:34:00,56.0,56.0,30.06,SSE,167,1.0,2.0,100,0.00,,,0.00,,2013-07-29 16:34:00,
2013-07-29 09:44:00,56.0,56.0,30.06,West,271,1.0,4.0,100,0.00,,,0.00,,2013-07-29 16:44:00,
2013-07-29 09:53:00,56.0,56.0,30.06,West,271,1.0,4.0,100,0.00,,,0.00,,2013-07-29 16:53:00,
2013-07-29 10:03:00,57.0,57.0,30.06,WNW,282,1.0,3.0,100,0.00,,,0.00,,2013-07-29 17:03:00,
2013-07-29 10:34:00,57.0,57.0,30.07,WNW,287,0.0,4.0,100,0.00,,,0.00,,2013-07-29 17:34:00,
2013-07-29 10:43:00,55.0,55.0,30.07,WNW,286,3.0,10.0,100,0.00,,,0.00,,2013-07-29 17:43:00,
2013-07-29 10:53:00,55.0,55.0,30.07,WNW,286,3.0,10.0,100,0.00,,,0.00,,2013-07-29 17:53:00,
2013-07-29 11:02:00,56.0,56.0,30.06,West,274,2.0,6.0,100,0.00,,,0.00,,2013-07-29 18:02:00,
2013-07-29 11:13:00,57.0,57.0,30.06,WNW,301,5.0,6.0,100,0.00,,,0.00,,2013-07-29 18:13:00,
2013-07-29 11:22:00,57.0,57.0,30.06,WNW,301,5.0,6.0,100,0.00,,,0.00,,2013-07-29 18:22:00,
2013-07-29 11:32:00,57.0,57.0,30.07,WNW,300,5.0,8.0,100,0.00,,,0.00,,2013-07-29 18:32:00,
2013-07-29 11:43:00,58.0,58.0,30.07,WNW,296,4.0,10.0,100,0.00,,,0.00,,2013-07-29 18:43:00,
2013-07-29 12:02:00,58.0,58.0,30.08,WNW,290,5.0,11.0,100,0.00,,,0.00,,2013-07-29 19:02:00,
2013-07-29 12:34:00,59.0,59.0,30.07,West,281,4.0,10.0,100,0.00,,,0.00,,2013-07-29 19:34:00,
2013-07-29 12:44:00,57.0,57.0,30.07,WNW,289,4.0,9.0,100,0.00,,,0.00,,2013-07-29 19:44:00,
2013-07-29 13:12:00,58.0,58.0,30.07,NW,304,6.0,10.0,100,0.00,,,0.00,,2013-07-29 20:12:00,
2013-07-29 13:33:00,59.0,59.0,30.08,NW,313,6.0,11.0,100,0.00,,,0.00,,2013-07-29 20:33:00,
2013-07-29 13:44:00,59.0,59.0,30.08,WNW,294,7.0,12.0,100,0.00,,,0.00,,2013-07-29 20:44:00,
2013-07-29 13:54:00,59.0,59.0,30.08,WNW,294,7.0,12.0,100,0.00,,,0.00,,2013-07-29 20:54:00,
2013-07-29 14:02:00,61.0,61.0,30.08,NW,308,4.0,12.0,100,0.00,,,0.00,,2013-07-29 21:02:00,
2013-07-29 14:22:00,59.0,59.0,30.08,WNW,288,9.0,13.0,100,0.00,,,0.00,,2013-07-29 21:22:00,
2013-07-29 14:33:00,59.0,59.0,30.08,WNW,300,7.0,11.0,100,0.00,,,0.00,,2013-07-29 21:33:00,
2013-07-29 14:43:00,60.0,60.0,30.08,NNW,338,8.0,12.0,100,0.00,,,0.00,,2013-07-29 21:43:00,
2013-07-29 14:52:00,60.0,60.0,30.08,NNW,338,8.0,12.0,100,0.00,,,0.00,,2013-07-29 21:52:00,
2013-07-29 15:02:00,60.0,60.0,30.08,WNW,285,6.0,13.0,100,0.00,,,0.00,,2013-07-29 22:02:00,
2013-07-29 15:12:00,60.0,60.0,30.08,WNW,296,6.0,12.0,100,0.00,,,0.00,,2013-07-29 22:12:00,
2013-07-29 15:33:00,60.0,60.0,30.08,NW,321,6.0,12.0,100,0.00,,,0.00,,2013-07-29 22:33:00,
2013-07-29 15:43:00,60.0,60.0,30.07,WNW,303,7.0,13.0,100,0.00,,,0.00,,2013-07-29 22:43:00,
2013-07-29 16:02:00,60.0,60.0,30.08,NW,319,9.0,14.0,100,0.00,,,0.00,,2013-07-29 23:02:00,
2013-07-29 16:33:00,59.0,59.0,30.08,WNW,293,7.0,14.0,100,0.00,,,0.00,,2013-07-29 23:33:00,
2013-07-29 16:53:00,59.0,59.0,30.08,NW,315,9.0,13.0,100,0.00,,,0.00,,2013-07-29 23:53:00,
2013-07-29 17:02:00,60.0,60.0,30.08,NW,317,6.0,12.0,100,0.00,,,0.00,,2013-07-30 00:02:00,
2013-07-29 17:13:00,60.0,60.0,30.08,WNW,302,9.0,13.0,100,0.00,,,0.00,,2013-07-30 00:13:00,
2013-07-29 17:22:00,60.0,60.0,30.08,WNW,302,9.0,13.0,100,0.00,,,0.00,,2013-07-30 00:22:00,
2013-07-29 17:32:00,59.0,59.0,30.08,WNW,303,10.0,15.0,100,0.00,,,0.00,,2013-07-30 00:32:00,
2013-07-29 17:44:00,59.0,59.0,30.08,WNW,301,7.0,13.0,100,0.00,,,0.00,,2013-07-30 00:44:00,
2013-07-29 18:33:00,59.0,59.0,30.08,NW,321,7.0,13.0,100,0.00,,,0.00,,2013-07-30 01:33:00,
2013-07-29 18:52:00,59.0,59.0,30.08,WNW,294,10.0,14.0,100,0.00,,,0.00,,2013-07-30 01:52:00,
2013-07-29 19:02:00,59.0,59.0,30.08,NW,309,10.0,14.0,100,0.00,,,0.00,,2013-07-30 02:02:00,
2013-07-29 19:13:00,58.0,58.0,30.07,WNW,294,8.0,12.0,100,0.00,,,0.00,,2013-07-30 02:13:00,
2013-07-29 19:33:00,59.0,59.0,30.08,NW,311,9.0,14.0,100,0.00,,,0.00,,2013-07-30 02:33:00,
2013-07-29 19:52:00,59.0,59.0,30.09,North,351,6.0,13.0,100,0.00,,,0.00,,2013-07-30 02:52:00,
2013-07-29 20:03:00,59.0,59.0,30.09,North,351,6.0,13.0,100,0.00,,,0.00,,2013-07-30 03:03:00,
2013-07-29 20:13:00,58.0,58.0,30.09,NW,317,7.0,14.0,100,0.00,,,0.00,,2013-07-30 03:13:00,
2013-07-29 20:33:00,58.0,58.0,30.09,WNW,301,5.0,12.0,100,0.00,,,0.00,,2013-07-30 03:33:00,
2013-07-29 20:43:00,58.0,58.0,30.09,NW,306,6.0,13.0,100,0.00,,,0.00,,2013-07-30 03:43:00,
2013-07-29 20:52:00,58.0,58.0,30.09,NW,306,6.0,13.0,100,0.00,,,0.00,,2013-07-30 03:52:00,
2013-07-29 21:02:00,57.0,57.0,30.09,NW,311,4.0,10.0,100,0.00,,,0.00,,2013-07-30 04:02:00,
2013-07-29 21:12:00,56.0,56.0,30.09,NW,316,6.0,9.0,100,0.00,,,0.00,,2013-07-30 04:12:00,
2013-07-29 21:22:00,56.0,56.0,30.09,NW,316,6.0,9.0,100,0.00,,,0.00,,2013-07-30 04:22:00,
2013-07-29 21:32:00,57.0,57.0,30.10,NNW,339,4.0,7.0,100,0.00,,,0.00,,2013-07-30 04:32:00,
2013-07-29 21:43:00,57.0,57.0,30.10,NNW,339,4.0,7.0,100,0.00,,,0.00,,2013-07-30 04:43:00,
2013-07-29 21:52:00,57.0,57.0,30.11,NW,320,7.0,10.0,100,0.00,,,0.00,,2013-07-30 04:52:00,
2013-07-29 22:02:00,57.0,57.0,30.11,NW,320,7.0,10.0,100,0.00,,,0.00,,2013-07-30 05:02:00,
2013-07-29 22:11:00,57.0,57.0,30.11,NNW,337,6.0,12.0,100,0.00,,,0.00,,2013-07-30 05:11:00,
2013-07-29 22:32:00,58.0,58.0,30.12,NW,313,5.0,9.0,100,0.00,,,0.00,,2013-07-30 05:32:00,
2013-07-29 22:45:00,58.0,58.0,30.12,NW,316,4.0,11.0,100,0.00,,,0.00,,2013-07-30 05:45:00,
2013-07-29 22:52:00,58.0,58.0,30.12,NW,311,4.0,10.0,100,0.00,,,0.00,,2013-07-30 05:52:00,
2013-07-29 23:02:00,58.0,58.0,30.12,NW,311,4.0,10.0,100,0.00,,,0.00,,2013-07-30 06:02:00,
2013-07-29 23:12:00,58.0,58.0,30.13,NW,313,3.0,10.0,100,0.00,,,0.00,,2013-07-30 06:12:00,
2013-07-29 23:32:00,58.0,58.0,30.13,WNW,292,5.0,7.0,100,0.00,,,0.00,,2013-07-30 06:32:00,
2013-07-29 23:43:00,56.0,56.0,30.13,WNW,294,3.0,6.0,100,0.00,,,0.00,,2013-07-30 06:43:00,
2013-07-29 23:52:00,56.0,56.0,30.13,WNW,294,3.0,6.0,100,0.00,,,0.00,,2013-07-30 06:52:00,